User: anonymous   Login
Location: Caltech
(34.1382°N, 118.1253°W)
Time: 12:45:35
(UTC-07:00)
Language:

CZ-2C R/B - Orbit

View from above orbital plane
View from above orbital plane
View from above satellite
View from above satellite

Ground track
Ground track

The orbit data is extracted from the following two-line orbital elements,

1 36089U 09061B   15209.53346978  .00000076  00000-0  30288-4 0  9992
2 36089 098.0696 230.8447 0082437 010.2976 103.2481 14.49471367301798
Epoch (UTC): 28 July 2015 12:48:11
Eccentricity: 0.0082437
inclination: 98.0696°
perigee height: 669 km
apogee height: 786 km
right ascension of ascending node: 230.8447°
argument of perigee: 10.2976°
revolutions per day: 14.49471367
mean anomaly at epoch: 103.2481°
orbit number at epoch: 30179

The dashed part of the orbit path shows where the satellite is in the earth's shadow,  

DLR